| time (UTC) | temp F | wind direction | speed MPH | gust MPH | rain 1hr in | rain 24hr in | rain mn in | humidity % | barometer mb |
| 20260507195618 | 57 | 198 | 2.0 | 3.0 | 0.00 | 0.15 | 0.12 | 87 | 1014.1 |
| 20260507193626 | 58 | 202 | 1.0 | 1.0 | 0.00 | 0.15 | 0.12 | 87 | 1014.0 |
| 20260507192630 | 58 | 0.0 | 1.0 | 0.00 | 0.15 | 0.12 | 87 | 1014.0 | |
| 20260507191604 | 58 | 202 | 0.0 | 1.0 | 0.00 | 0.15 | 0.12 | 87 | 1014.0 |
| 20260507190609 | 58 | 202 | 1.0 | 2.0 | 0.00 | 0.15 | 0.12 | 86 | 1014.0 |
| 20260507185613 | 58 | 204 | 1.0 | 2.0 | 0.00 | 0.15 | 0.12 | 86 | 1013.7 |
| 20260507184637 | 58 | 218 | 1.0 | 3.0 | 0.00 | 0.15 | 0.12 | 86 | 1013.7 |
| 20260507183536 | 58 | 209 | 1.0 | 4.0 | 0.00 | 0.15 | 0.12 | 86 | 1013.6 |
| 20260507182637 | 58 | 224 | 2.0 | 4.0 | 0.00 | 0.15 | 0.12 | 85 | 1013.4 |
| 20260507181637 | 58 | 229 | 2.0 | 4.0 | 0.00 | 0.15 | 0.12 | 85 | 1013.4 |
| 20260507180517 | 58 | 186 | 0.0 | 3.0 | 0.00 | 0.15 | 0.12 | 85 | 1013.1 |
| 20260507175616 | 59 | 229 | 1.0 | 3.0 | 0.01 | 0.15 | 0.12 | 84 | 1013.1 |
| 20260507174619 | 59 | 143 | 0.0 | 1.0 | 0.03 | 0.15 | 0.12 | 84 | 1012.7 |
| 20260507173518 | 59 | 132 | 1.0 | 3.0 | 0.05 | 0.15 | 0.12 | 83 | 1012.5 |
| 20260507172638 | 60 | 149 | 3.0 | 6.0 | 0.06 | 0.15 | 0.12 | 83 | 1012.7 |
| 20260507171517 | 60 | 158 | 1.0 | 4.0 | 0.06 | 0.15 | 0.12 | 82 | 1012.9 |
| 20260507165526 | 61 | 236 | 0.0 | 1.0 | 0.05 | 0.14 | 0.11 | 81 | 1012.7 |
| 20260507164549 | 61 | 235 | 0.0 | 1.0 | 0.03 | 0.11 | 0.09 | 80 | 1012.8 |
| 20260507163604 | 61 | 189 | 1.0 | 4.0 | 0.01 | 0.09 | 0.07 | 79 | 1012.7 |
| 20260507162516 | 62 | 174 | 3.0 | 6.0 | 0.00 | 0.09 | 0.06 | 78 | 1012.8 |
| 20260507161520 | 62 | 193 | 3.0 | 6.0 | 0.00 | 0.08 | 0.06 | 77 | 1012.8 |
| 20260507160525 | 62 | 186 | 3.0 | 7.0 | 0.00 | 0.08 | 0.06 | 77 | 1012.8 |
| 20260507155552 | 62 | 188 | 2.0 | 7.0 | 0.00 | 0.08 | 0.06 | 77 | 1012.7 |
| 20260507154533 | 62 | 202 | 2.0 | 4.0 | 0.01 | 0.08 | 0.06 | 77 | 1012.7 |
| 20260507153526 | 62 | 214 | 3.0 | 6.0 | 0.02 | 0.08 | 0.06 | 77 | 1012.6 |
| 20260507152530 | 62 | 196 | 2.0 | 7.0 | 0.02 | 0.08 | 0.06 | 78 | 1012.7 |
| 20260507151535 | 62 | 188 | 3.0 | 7.0 | 0.02 | 0.08 | 0.06 | 77 | 1012.8 |
| 20260507150600 | 62 | 214 | 3.0 | 7.0 | 0.02 | 0.08 | 0.06 | 76 | 1012.9 |
| 20260507145543 | 62 | 221 | 4.0 | 7.0 | 0.02 | 0.08 | 0.06 | 74 | 1012.8 |
| 20260507144537 | 63 | 235 | 4.0 | 10.0 | 0.01 | 0.07 | 0.05 | 72 | 1012.8 |
| 20260507143541 | 63 | 234 | 4.0 | 8.0 | 0.00 | 0.07 | 0.04 | 70 | 1012.8 |
| 20260507142646 | 63 | 234 | 4.0 | 8.0 | 0.00 | 0.07 | 0.04 | 68 | 1012.7 |
| 20260507141610 | 64 | 240 | 6.0 | 13.0 | 0.00 | 0.07 | 0.04 | 67 | 1012.6 |
| 20260507140555 | 65 | 233 | 6.0 | 15.0 | 0.00 | 0.07 | 0.04 | 64 | 1012.8 |
| 20260507135548 | 66 | 261 | 7.0 | 16.0 | 0.00 | 0.07 | 0.04 | 61 | 1012.8 |
| 20260507134712 | 67 | 230 | 9.0 | 18.0 | 0.00 | 0.07 | 0.04 | 59 | 1012.8 |
| 20260507133616 | 67 | 229 | 8.0 | 14.0 | 0.00 | 0.07 | 0.04 | 58 | 1012.6 |
| 20260507132620 | 68 | 238 | 9.0 | 15.0 | 0.00 | 0.07 | 0.04 | 58 | 1012.6 |
| 20260507131645 | 68 | 248 | 9.0 | 22.0 | 0.00 | 0.07 | 0.04 | 57 | 1012.7 |
| 20260507130558 | 69 | 243 | 8.0 | 15.0 | 0.00 | 0.07 | 0.04 | 56 | 1012.6 |
| 20260507125644 | 69 | 235 | 11.0 | 23.0 | 0.00 | 0.07 | 0.04 | 55 | 1012.6 |
| 20260507124608 | 69 | 256 | 9.0 | 16.0 | 0.00 | 0.07 | 0.04 | 55 | 1012.5 |
| 20260507123631 | 69 | 238 | 3.0 | 10.0 | 0.00 | 0.07 | 0.04 | 56 | 1012.4 |
| 20260507122615 | 70 | 228 | 7.0 | 15.0 | 0.00 | 0.07 | 0.04 | 55 | 1012.4 |
| 20260507121609 | 70 | 205 | 5.0 | 15.0 | 0.00 | 0.07 | 0.04 | 55 | 1012.5 |
| 20260507120632 | 70 | 224 | 7.0 | 15.0 | 0.00 | 0.07 | 0.04 | 54 | 1012.4 |
| 20260507115616 | 71 | 232 | 7.0 | 13.0 | 0.00 | 0.07 | 0.04 | 52 | 1012.5 |
| 20260507114613 | 72 | 225 | 9.0 | 16.0 | 0.00 | 0.07 | 0.04 | 50 | 1012.4 |
| 20260507113636 | 72 | 234 | 8.0 | 14.0 | 0.00 | 0.07 | 0.04 | 50 | 1012.3 |
| 20260507112640 | 72 | 228 | 9.0 | 16.0 | 0.00 | 0.07 | 0.04 | 52 | 1012.4 |
| 20260507111614 | 71 | 229 | 8.0 | 17.0 | 0.00 | 0.07 | 0.04 | 52 | 1012.3 |
| 20260507110619 | 71 | 259 | 6.0 | 13.0 | 0.00 | 0.07 | 0.04 | 53 | 1012.3 |
| 20260507105518 | 71 | 239 | 6.0 | 17.0 | 0.00 | 0.07 | 0.04 | 53 | 1012.4 |
| 20260507104521 | 72 | 289 | 6.0 | 14.0 | 0.00 | 0.07 | 0.04 | 54 | 1012.4 |
| 20260507103525 | 73 | 203 | 8.0 | 21.0 | 0.00 | 0.07 | 0.04 | 52 | 1012.4 |
| 20260507102519 | 74 | 232 | 8.0 | 14.0 | 0.00 | 0.07 | 0.04 | 52 | 1012.5 |
| 20260507101543 | 74 | 238 | 6.0 | 16.0 | 0.00 | 0.07 | 0.04 | 54 | 1012.6 |
| 20260507100527 | 72 | 211 | 5.0 | 9.0 | 0.00 | 0.07 | 0.04 | 57 | 1012.5 |
| 20260507095531 | 72 | 208 | 7.0 | 14.0 | 0.00 | 0.07 | 0.04 | 57 | 1012.5 |
| 20260507094616 | 71 | 209 | 2.0 | 6.0 | 0.00 | 0.07 | 0.04 | 57 | 1012.6 |
| 20260507093549 | 72 | 241 | 5.0 | 11.0 | 0.00 | 0.07 | 0.04 | 58 | 1012.4 |
| 20260507092533 | 71 | 235 | 4.0 | 9.0 | 0.00 | 0.07 | 0.04 | 60 | 1012.5 |
| 20260507091557 | 70 | 234 | 4.0 | 8.0 | 0.00 | 0.07 | 0.04 | 61 | 1012.5 |
| 20260507090541 | 69 | 218 | 4.0 | 10.0 | 0.00 | 0.07 | 0.04 | 60 | 1012.5 |
| 20260507085607 | 69 | 248 | 6.0 | 11.0 | 0.00 | 0.07 | 0.04 | 62 | 1012.5 |
| 20260507084539 | 68 | 247 | 6.0 | 11.0 | 0.00 | 0.07 | 0.04 | 64 | 1012.4 |
| 20260507083606 | 66 | 229 | 6.0 | 13.0 | 0.00 | 0.07 | 0.04 | 66 | 1012.4 |
| 20260507082548 | 66 | 237 | 5.0 | 9.0 | 0.00 | 0.07 | 0.04 | 65 | 1012.3 |
| 20260507081550 | 66 | 258 | 6.0 | 13.0 | 0.00 | 0.07 | 0.04 | 65 | 1012.3 |
| 20260507080556 | 66 | 244 | 6.0 | 11.0 | 0.00 | 0.07 | 0.04 | 66 | 1012.1 |
| 20260507075609 | 65 | 240 | 6.0 | 10.0 | 0.00 | 0.07 | 0.04 | 69 | 1012.0 |
| 20260507074542 | 65 | 236 | 7.0 | 15.0 | 0.00 | 0.07 | 0.04 | 69 | 1012.0 |
| 20260507073607 | 65 | 236 | 6.0 | 15.0 | 0.00 | 0.07 | 0.04 | 69 | 1012.0 |
| 20260507072631 | 65 | 243 | 5.0 | 11.0 | 0.00 | 0.07 | 0.04 | 70 | 1011.9 |
| 20260507071615 | 65 | 238 | 4.0 | 9.0 | 0.00 | 0.07 | 0.04 | 71 | 1011.8 |
| 20260507070559 | 65 | 211 | 4.0 | 10.0 | 0.00 | 0.07 | 0.04 | 72 | 1011.9 |
| 20260507065554 | 64 | 253 | 5.0 | 9.0 | 0.00 | 0.07 | 0.04 | 74 | 1011.8 |
| 20260507064658 | 63 | 261 | 4.0 | 10.0 | 0.00 | 0.07 | 0.04 | 75 | 1011.8 |
| 20260507063602 | 62 | 216 | 5.0 | 11.0 | 0.00 | 0.07 | 0.04 | 76 | 1011.8 |
| 20260507062605 | 62 | 241 | 3.0 | 8.0 | 0.00 | 0.07 | 0.04 | 78 | 1011.6 |
| 20260507061610 | 61 | 228 | 6.0 | 9.0 | 0.00 | 0.07 | 0.04 | 78 | 1011.7 |
| 20260507060624 | 61 | 199 | 4.0 | 10.0 | 0.00 | 0.07 | 0.04 | 79 | 1011.5 |
| 20260507055628 | 60 | 217 | 6.0 | 11.0 | 0.00 | 0.07 | 0.04 | 80 | 1011.5 |
| 20260507054612 | 60 | 215 | 4.0 | 9.0 | 0.00 | 0.07 | 0.04 | 81 | 1011.4 |
| 20260507053737 | 59 | 217 | 3.0 | 9.0 | 0.00 | 0.07 | 0.04 | 82 | 1011.3 |
| 20260507052536 | 59 | 212 | 3.0 | 8.0 | 0.00 | 0.07 | 0.04 | 83 | 1011.3 |
| 20260507051614 | 58 | 217 | 2.0 | 3.0 | 0.00 | 0.07 | 0.04 | 83 | 1011.2 |
| 20260507045556 | 58 | 209 | 2.0 | 6.0 | 0.00 | 0.07 | 0.04 | 83 | 1010.9 |
| 20260507044615 | 58 | 245 | 2.0 | 2.0 | 0.00 | 0.07 | 0.04 | 83 | 1010.7 |
| 20260507043640 | 57 | 254 | 2.0 | 4.0 | 0.00 | 0.07 | 0.04 | 84 | 1010.6 |
| 20260507042539 | 57 | 227 | 3.0 | 9.0 | 0.00 | 0.07 | 0.04 | 84 | 1010.4 |
| 20260507041658 | 57 | 232 | 5.0 | 10.0 | 0.00 | 0.07 | 0.04 | 84 | 1010.2 |
| 20260507040557 | 57 | 245 | 5.0 | 9.0 | 0.00 | 0.07 | 0.04 | 84 | 1010.1 |
| 20260507035541 | 57 | 233 | 4.0 | 9.0 | 0.00 | 0.07 | 0.04 | 84 | 1010.1 |
| 20260507034545 | 57 | 242 | 4.0 | 8.0 | 0.00 | 0.07 | 0.04 | 84 | 1010.1 |
| 20260507033650 | 57 | 247 | 5.0 | 8.0 | 0.00 | 0.07 | 0.04 | 84 | 1010.1 |
| 20260507032523 | 57 | 231 | 5.0 | 9.0 | 0.00 | 0.07 | 0.04 | 84 | 1010.1 |
| 20260507031547 | 57 | 233 | 4.0 | 7.0 | 0.00 | 0.07 | 0.04 | 84 | 1010.1 |
| 20260507030551 | 57 | 261 | 4.0 | 8.0 | 0.00 | 0.07 | 0.04 | 84 | 1010.0 |
| 20260507025635 | 57 | 269 | 4.0 | 8.0 | 0.00 | 0.07 | 0.04 | 84 | 1010.0 |
| 20260507024538 | 57 | 266 | 4.0 | 7.0 | 0.00 | 0.07 | 0.04 | 84 | 1010.0 |
| 20260507023552 | 57 | 270 | 4.0 | 7.0 | 0.00 | 0.07 | 0.04 | 84 | 1010.1 |
| 20260507022607 | 57 | 265 | 4.0 | 7.0 | 0.00 | 0.07 | 0.04 | 84 | 1010.0 |
| 20260507021612 | 58 | 255 | 4.0 | 7.0 | 0.00 | 0.07 | 0.04 | 84 | 1009.9 |
| 20260507020616 | 58 | 249 | 4.0 | 9.0 | 0.00 | 0.07 | 0.04 | 84 | 1009.8 |
| 20260507015559 | 58 | 245 | 5.0 | 11.0 | 0.00 | 0.07 | 0.04 | 84 | 1009.9 |
| 20260507014603 | 58 | 239 | 6.0 | 11.0 | 0.00 | 0.07 | 0.04 | 85 | 1010.0 |
| 20260507013617 | 58 | 253 | 6.0 | 14.0 | 0.00 | 0.07 | 0.04 | 85 | 1010.0 |
| 20260507012541 | 58 | 245 | 6.0 | 10.0 | 0.00 | 0.07 | 0.04 | 85 | 1010.1 |
| 20260507011706 | 58 | 251 | 7.0 | 11.0 | 0.00 | 0.07 | 0.04 | 85 | 1010.1 |
| 20260507010630 | 58 | 241 | 4.0 | 7.0 | 0.00 | 0.07 | 0.04 | 85 | 1009.9 |
| 20260507005614 | 58 | 258 | 3.0 | 8.0 | 0.00 | 0.07 | 0.04 | 85 | 1010.0 |
| 20260507004548 | 58 | 236 | 3.0 | 4.0 | 0.00 | 0.07 | 0.04 | 85 | 1010.0 |
| 20260507003612 | 59 | 229 | 2.0 | 4.0 | 0.00 | 0.07 | 0.04 | 85 | 1010.1 |
| 20260507002617 | 59 | 244 | 3.0 | 6.0 | 0.00 | 0.07 | 0.04 | 85 | 1010.2 |
| 20260507001620 | 59 | 258 | 3.0 | 6.0 | 0.00 | 0.07 | 0.04 | 84 | 1010.2 |
| 20260507000604 | 59 | 247 | 2.0 | 4.0 | 0.02 | 0.07 | 0.04 | 84 | 1010.4 |
| 20260506235639 | 59 | 241 | 2.0 | 6.0 | 0.04 | 0.07 | 0.04 | 84 | 1010.5 |
| 20260506234602 | 59 | 253 | 2.0 | 6.0 | 0.04 | 0.07 | 0.04 | 84 | 1010.4 |
| 20260506233627 | 59 | 223 | 2.0 | 6.0 | 0.04 | 0.07 | 0.04 | 83 | 1010.6 |
| 20260506232612 | 60 | 213 | 4.0 | 6.0 | 0.04 | 0.07 | 0.04 | 83 | 1010.6 |
| 20260506231615 | 60 | 222 | 3.0 | 6.0 | 0.04 | 0.06 | 0.04 | 82 | 1010.6 |
| 20260506230629 | 61 | 210 | 6.0 | 16.0 | 0.03 | 0.05 | 0.03 | 82 | 1011.0 |
| 20260506225611 | 61 | 220 | 7.0 | 14.0 | 0.01 | 0.03 | 0.01 | 82 | 1011.0 |
| 20260506224635 | 61 | 231 | 7.0 | 17.0 | 0.01 | 0.03 | 0.01 | 81 | 1011.0 |
| 20260506223611 | 61 | 226 | 5.0 | 11.0 | 0.01 | 0.03 | 0.01 | 81 | 1010.8 |
| 20260506222637 | 61 | 193 | 4.0 | 9.0 | 0.00 | 0.02 | 0.00 | 80 | 1010.4 |
| 20260506221640 | 61 | 250 | 5.0 | 10.0 | 0.00 | 0.02 | 0.00 | 80 | 1010.0 |
| 20260506220634 | 61 | 249 | 6.0 | 11.0 | 0.00 | 0.02 | 0.00 | 80 | 1009.8 |
| 20260506215638 | 61 | 266 | 5.0 | 10.0 | 0.00 | 0.02 | 0.02 | 79 | 1009.9 |
| 20260506214538 | 61 | 247 | 3.0 | 7.0 | 0.00 | 0.02 | 0.02 | 79 | 1009.9 |
| 20260506213521 | 61 | 252 | 4.0 | 6.0 | 0.00 | 0.02 | 0.02 | 80 | 1009.8 |
| 20260506212646 | 61 | 236 | 3.0 | 6.0 | 0.00 | 0.02 | 0.02 | 79 | 1010.0 |
| 20260506211520 | 62 | 250 | 2.0 | 4.0 | 0.00 | 0.02 | 0.02 | 79 | 1009.9 |
| 20260506210625 | 62 | 240 | 2.0 | 4.0 | 0.02 | 0.02 | 0.02 | 79 | 1009.9 |
| 20260506205527 | 62 | 265 | 3.0 | 6.0 | 0.02 | 0.02 | 0.02 | 79 | 1009.8 |
| 20260506204633 | 62 | 258 | 2.0 | 6.0 | 0.02 | 0.02 | 0.02 | 79 | 1009.8 |
| 20260506203538 | 62 | 253 | 3.0 | 9.0 | 0.02 | 0.02 | 0.02 | 78 | 1009.8 |
| 20260506202610 | 62 | 258 | 6.0 | 11.0 | 0.02 | 0.02 | 0.02 | 77 | 1010.2 |
| 20260506201554 | 63 | 227 | 4.0 | 13.0 | 0.02 | 0.02 | 0.02 | 75 | 1010.3 |
| 20260506200619 | 64 | 245 | 7.0 | 16.0 | 0.01 | 0.01 | 0.01 | 73 | 1010.3 |